{"data":{"norad_id":68710,"epoch":"2026-05-25T01:57:16.369344Z","epoch_age_seconds":71308,"freshness":"FRESH","line1":"1 68710U 26081M   26145.08143946 -.00052297  00000+0 -94431-3 0  9992","line2":"2 68710  53.1593  39.6259 0000263  95.2382 264.8657 15.49136748  6433","mean_motion":15.49136748,"eccentricity":2.63e-5,"inclination_deg":53.1593,"raan_deg":39.6259,"arg_perigee_deg":95.2382,"mean_anomaly_deg":264.8657,"bstar":-0.00094431,"rev_number":643,"period_min":92.954995861992,"perigee_km":419.07134216226,"apogee_km":419.42888472443,"semimajor_km":6797.3871134433,"source":"CELESTRAK","updated_at":"2026-05-25T13:38:21.999968Z"}}